{"data":{"norad_id":89132,"epoch":"2026-05-19T06:00:43.117920Z","epoch_age_seconds":578530,"freshness":"STALE","line1":"1 89132U          26139.25049905  .00000559  00000+0  77811-3 0  9993","line2":"2 89132  63.4140 227.1229 2923953 319.6966  21.9642  8.88088910339099","mean_motion":8.8808891,"eccentricity":0.2923953,"inclination_deg":63.414,"raan_deg":227.1229,"arg_perigee_deg":319.6966,"mean_anomaly_deg":21.9642,"bstar":0.00077811,"rev_number":33909,"period_min":162.14592748377,"perigee_km":591.68337441622,"apogee_km":6351.7997764795,"semimajor_km":9849.8785754479,"source":"CELESTRAK","updated_at":"2026-05-25T13:38:11.777906Z"}}